sat.trackr.live / text

‹ back to catalog

STARLINK-35164

NORAD 65519 · 2025-198AD

PAYLOAD ACTIVE UNKNOWN

§ Identity

Operator
Country
US
Launch date
2025-09-05
Launch site
AFETR
Launch vehicle
Mass (kg)
RCS (m²)

Purposes: comms

External: N2YO · Heavens-Above · Gunter

§ Orbital elements

Epoch: 2026-09-20T21:12:51.245280Z

Period
93.85 min
Inclination
53.1581°
Eccentricity
0.0001559
Mean motion
15.34394326 rev/d
Perigee alt
461.7 km
Apogee alt
463.8 km
Semi-major
6,840.9 km
B*
3.0953e-4
RAAN
80.1892°
Arg perigee
78.4568°
Mean anomaly
281.6609°
Rev number
5,856

§ Raw data

STARLINK-351641 65519U 25198AD  26263.88392645  .00010094  00000+0  30953-3 0  99912 65519  53.1581  80.1892 0001559  78.4568 281.6609 15.34394326 58563

JSON: /api/v1/satellites/65519 · /tle

For live sub-satellite position, see the globe view (requires WebGL).

§ Visibility from observer

Set your observer location to see the next 7 days of passes ≥ 10°. The values pass through the URL so the page stays shareable.

No JS? Fill the form by hand. The geolocation button needs JavaScript.